Location: Berkeley
(37.8716°N, 122.2727°W)
Time: 12:19:04
(UTC-07:00)

Envisat - Pass Details

Date: 26 April 2024
Orbit: 762 x 764 km, 98.3° (Epoch: 29 May)

Event Time Altitude Azimuth Distance (km) Brightness Sun altitude
Rises 03:15:00 0° 33° (NNE) 3,232 7.4 -30.3°
Reaches altitude 10° 03:18:13 10° 54° (NE) 2,301 6.3 -29.9°
Maximum altitude 03:21:19 16° 92° (E) 1,904 5.4 -29.5°
Enters shadow 03:23:52 12° 125° (SE) 2,177 5.4 -29.2°
